Tracking 32936 objects as of 17-Jan-2026
HD Live streaming from Space Station
objects crossing your sky now

DMSP 5D-2 F13 DEB

Track DMSP 5D-2 F13 DEB now!
10-day predictions


NORAD ID: 40471
Int'l Code: 1995-015BP
Perigee: 791.5 km
Apogee: 820.2 km
Inclination: 98.9 °
Period: 100.8 minutes
Semi major axis: 7176 km
RCS: Unknown
Launch date: March 24, 1995
Source: United States (US)
Launch site: AIR FORCE WESTERN TEST RANGE (AFWTR)

Note: This is SATELLITE DEBRIS
Your satellite tracking list
Your tracking list is empty




NASA's NSSDC Master Catalog

Two Line Element Set (TLE):
1 40471U 95015BP  26016.26884501  .00002589  00000-0  10615-2 0  9994
2 40471  98.8939  43.0373 0020045  42.1477 318.1240 14.27916485560535
Source of the keplerian elements: AFSPC